sat.trackr.live / text

‹ back to catalog

EXPRESS 103

NORAD 45985 · 2020-053A

PAYLOAD ACTIVE UNKNOWN

§ Identity

Operator
Country
CIS
Launch date
2020-07-30
Launch site
TYMSC
Launch vehicle
Mass (kg)
RCS (m²)

Purposes: comms

External: N2YO · Heavens-Above · Gunter

§ Orbital elements

Epoch: 2026-09-13T02:20:18.528288Z

Period
1,436.03 min
Inclination
0.0393°
Eccentricity
0.0000885
Mean motion
1.00276146 rev/d
Perigee alt
35,781.6 km
Apogee alt
35,789.1 km
Semi-major
42,163.5 km
B*
0.0000e+0
RAAN
266.6377°
Arg perigee
331.3806°
Mean anomaly
245.6598°
Rev number
2,253

§ Raw data

EXPRESS 1031 45985U 20053A   26256.09743667 -.00000293  00000+0  00000+0 0  99972 45985   0.0393 266.6377 0000885 331.3806 245.6598  1.00276146 22538

JSON: /api/v1/satellites/45985 · /tle

For live sub-satellite position, see the globe view (requires WebGL).

§ Visibility from observer

Set your observer location to see the next 7 days of passes ≥ 10°. The values pass through the URL so the page stays shareable.

No JS? Fill the form by hand. The geolocation button needs JavaScript.